This demonstration page uses our WeatherBlox Daily Observations layout. Learn more.

Left ArrowRight Arrow

39.51506, -84.39828

Hourly Observations for August 11, 2016

Temp ( °F °C ) Dew Point ( °F °C ) Humidity (%) Winds ( mph kmh ) Pressure ( in mb ) Visibility ( mi km ) Precip ( " mm )
12:15 am 00:15 Clear 74 23.6 70 21.1 86 86 N N/A 30.06 1018 7 11 N/A
12:35 am 00:35 Hazy 74 23.6 70 21 85 85 N N/A 30.09 1019 5 8 N/A
12:55 am 00:55 Hazy 74 23.6 70 21 85 85 N N/A 30.09 1019 5 8 N/A
1:15 am 01:15 Hazy 74 23.6 70 21 85 85 N N/A 30.09 1019 5 8 N/A
1:35 am 01:35 Partly Cloudy 74 23.6 70 21 85 85 N N/A 30.09 1019 7 11 N/A
1:55 am 01:55 Mostly Cloudy 75 23.8 70 21.1 85 85 N N/A 30.09 1019 10 16 N/A
2:15 am 02:15 Clear 74 23.6 70 21 85 85 N N/A 30.09 1019 10 16 N/A
2:35 am 02:35 Clear 74 23.6 70 21 85 85 N N/A 30.06 1018 7 11 N/A
2:55 am 02:55 Mostly Cloudy 74 23.6 70 21 85 85 N N/A 30.09 1019 10 16 N/A
3:15 am 03:15 Cloudy 74 23.6 70 21 85 85 N N/A 30.09 1019 7 11 N/A
3:35 am 03:35 Cloudy 74 23.6 70 21 85 85 N N/A 30.06 1018 7 11 N/A
3:55 am 03:55 Cloudy 74 23.6 70 21 85 85 NW 3 6 30.06 1018 7 11 N/A
4:15 am 04:15 Cloudy 74 23.6 70 21.1 86 86 N N/A 30.06 1018 7 11 N/A
4:35 am 04:35 Mostly Cloudy 74 23.6 70 21 85 85 N N/A 30.06 1018 7 11 N/A
4:55 am 04:55 Cloudy 74 23.6 70 21 85 85 N N/A 30.06 1018 7 11 N/A
5:15 am 05:15 Mostly Cloudy 74 23.6 70 21 85 85 N N/A 30.06 1018 7 11 N/A
5:35 am 05:35 Cloudy 74 23.6 70 21 85 85 N N/A 30.06 1018 7 11 N/A
5:55 am 05:55 Mostly Cloudy 74 23.6 70 21 85 85 N N/A 30.06 1018 7 11 N/A
6:15 am 06:15 Clear 74 23.6 70 21 85 85 N N/A 30.06 1018 7 11 N/A
6:35 am 06:35 Mostly Cloudy with Haze 74 23.6 70 21 85 85 N N/A 30.06 1018 5 8 N/A
6:55 am 06:55 Mostly Cloudy 74 23.6 70 21.1 86 86 N N/A 30.06 1018 7 11 N/A
7:15 am 07:15 Mostly Cloudy 74 23.6 70 21 85 85 N N/A 30.06 1018 7 11 N/A
7:35 am 07:35 Mostly Cloudy 74 23.6 70 21 85 85 N N/A 30.06 1018 7 11 N/A
7:55 am 07:55 Partly Cloudy 74 23.6 70 21 85 85 N N/A 30.06 1018 7 11 N/A
8:15 am 08:15 Mostly Cloudy 77 25.1 72 22.1 83 83 N N/A 30.06 1018 7 11 N/A
8:35 am 08:35 Partly Cloudy 79 26.3 73 22.8 81 81 N N/A 30.06 1018 7 11 N/A
8:55 am 08:55 Mostly Cloudy 80 26.6 73 22.6 79 79 N N/A 30.06 1018 10 16 N/A
9:15 am 09:15 Partly Cloudy 82 28 73 23 74 74 S 3 6 30.09 1019 10 16 N/A
9:35 am 09:35 Sunny 83 28.3 73 22.8 72 72 SW 3 6 30.09 1019 10 16 N/A
9:55 am 09:55 Sunny 85 29.3 73 22.9 68 68 S 3 6 30.03 1017 10 16 N/A
10:15 am 10:15 Partly Cloudy 87 30.7 74 23.3 65 65 ESE 7 11 30.03 1017 10 16 N/A
10:35 am 10:35 Sunny 90 32.1 76 24.4 64 64 SW 7 11 30.03 1017 10 16 N/A
10:55 am 10:55 Partly Cloudy 90 32.1 73 22.9 58 58 SW 8 13 30.03 1017 10 16 N/A
11:15 am 11:15 Partly Cloudy 90 32.1 71 21.6 54 54 SSW 8 13 30.03 1017 10 16 N/A
11:35 am 11:35 Partly Cloudy 90 32.1 69 20.7 51 51 SW 9 15 30.03 1017 10 16 N/A
11:55 am 11:55 Sunny 90 32.2 68 19.8 48 48 SSW 12 19 30.03 1017 10 16 N/A
12:15 pm 12:15 Mostly Cloudy 90 32.1 68 20.2 49 49 SSW 10 17 30.03 1017 10 16 N/A
12:35 pm 12:35 Mostly Cloudy 90 32.1 68 20 49 49 SSW 9 15 30.03 1017 10 16 N/A
12:55 pm 12:55 Mostly Cloudy 91 32.6 67 19.7 47 47 WSW 8 13 30.00 1016 10 16 N/A
1:15 pm 13:15 Partly Cloudy 95 35 69 20.4 42 42 SW 8 13 30.00 1016 10 16 N/A
1:35 pm 13:35 Sunny 94 34.2 69 20.4 44 44 SSW 9 15 30.00 1016 10 16 N/A
1:55 pm 13:55 Sunny 95 35 66 19 39 39 SSW 13 20 30.00 1016 10 16 N/A
2:15 pm 14:15 Mostly Cloudy 90 32.1 69 20.5 50 50 WSW 10 17 29.97 1015 10 16 N/A
2:35 pm 14:35 Mostly Cloudy 90 32.1 70 21 52 52 SW 10 17 30.00 1016 10 16 N/A
2:55 pm 14:55 Mostly Cloudy 91 32.9 70 20.9 49 49 WSW 14 22 29.97 1015 10 16 N/A
3:15 pm 15:15 Partly Cloudy 92 33.6 69 20.7 47 47 SW 15 24 29.97 1015 10 16 N/A
3:35 pm 15:35 Sunny 92 33.5 69 20.7 47 47 SW 14 22 29.97 1015 10 16 N/A
3:55 pm 15:55 Sunny 95 35 69 20.8 43 43 SW 12 19 29.97 1015 10 16 N/A
4:15 pm 16:15 Sunny 95 35 70 21.1 44 44 SW 13 20 29.94 1014 10 16 N/A
4:35 pm 16:35 Partly Cloudy 95 35 68 20.1 42 42 SW 13 20 29.94 1014 10 16 N/A
4:55 pm 16:55 Partly Cloudy 95 34.9 71 21.4 45 45 SW 12 19 29.94 1014 10 16 N/A
5:15 pm 17:15 Partly Cloudy 95 35 72 22.2 47 47 SW 8 13 29.94 1014 10 16 N/A
5:35 pm 17:35 Partly Cloudy 92 33.6 69 20.6 46 46 WSW 13 20 29.94 1014 10 16 N/A
5:55 pm 17:55 Partly Cloudy 95 35 69 20.4 42 42 WSW 13 20 29.94 1014 10 16 N/A
6:15 pm 18:15 Partly Cloudy 93 33.7 69 20.5 46 46 SW 10 17 29.94 1014 10 16 N/A
6:35 pm 18:35 Mostly Cloudy 91 32.7 68 20.2 48 48 SSW 13 20 29.94 1014 10 16 N/A
6:55 pm 18:55 Mostly Cloudy 90 32.1 69 20.6 51 51 SSW 10 17 29.94 1014 10 16 N/A
7:15 pm 19:15 Mostly Cloudy 90 32.2 67 19.7 48 48 SW 9 15 29.94 1014 10 16 N/A
7:35 pm 19:35 Sunny 90 32.1 68 20 49 49 SW 8 13 29.91 1013 10 16 N/A
7:55 pm 19:55 Partly Cloudy 90 32.1 69 20.4 50 50 SSW 8 13 29.94 1014 10 16 N/A
8:15 pm 20:15 Partly Cloudy 90 32.1 71 21.5 53 53 SSW 7 11 29.91 1013 10 16 N/A
8:35 pm 20:35 Sunny 90 32.1 71 21.9 55 55 SSW 9 15 29.91 1013 10 16 N/A
8:55 pm 20:55 Clear 88 31.3 71 21.9 57 57 SSW 8 13 29.91 1013 10 16 N/A
9:15 pm 21:15 Clear 88 31 71 21.4 57 57 SSW 8 13 29.91 1013 10 16 N/A
9:35 pm 21:35 Clear 85 29.6 69 20.3 57 57 SSW 9 15 29.91 1013 10 16 N/A
9:55 pm 21:55 Clear 83 28.1 69 20.3 63 63 SSW 6 9 29.91 1013 10 16 N/A
10:15 pm 22:15 Clear 84 28.7 68 19.9 59 59 S 5 7 29.94 1014 10 16 N/A
10:35 pm 22:35 Clear 82 27.6 69 20.8 67 67 SW 3 6 29.97 1015 10 16 N/A
10:55 pm 22:55 Clear 81 27.2 70 21 69 69 SW 3 6 29.97 1015 10 16 N/A
11:15 pm 23:15 Clear 80 26.5 70 21.2 73 73 WSW 3 6 29.97 1015 10 16 N/A
11:35 pm 23:35 Clear 80 26.4 72 22.2 78 78 W 3 6 29.97 1015 10 16 N/A
11:55 pm 23:55 Clear 77 25.1 70 21.2 79 79 N N/A 29.94 1014 10 16 N/A

Powered by AerisWeather